N8HKU-5 Weather Reports


time (UTC)temp
C
wind
direction
speed
KPH
gust
KPH
rain 1hr
cm
rain 24hr
cm
rain mn
cm
humidity
%
barometer
mb
20260502210233 8 258 0.0 9.7 0.00 0.00 0.00 45 1014.0
20260502205233 8 0 0.0 0.0 0.00 0.00 0.00 46 1014.1
20260502204234 8 0 0.0 4.8 0.00 0.00 0.00 45 1014.0
20260502203233 8 0 0.0 1.6 0.00 0.00 0.00 46 1014.2
20260502202234 8 279 1.6 9.7 0.00 0.00 0.00 45 1014.2
20260502201234 8 278 0.0 12.9 0.00 0.00 0.00 44 1014.3
20260502200234 8 286 1.6 12.9 0.00 0.00 0.00 44 1014.4
20260502195233 8 178 0.0 8.0 0.00 0.00 0.00 44 1014.4
20260502194233 8 294 0.0 11.3 0.00 0.00 0.00 45 1014.5
20260502193234 8 0 0.0 1.6 0.00 0.00 0.00 45 1014.6
20260502192233 8 262 0.0 6.4 0.00 0.00 0.00 42 1014.7
20260502191233 8 0 0.0 0.0 0.00 0.00 0.00 42 1014.8
20260502190233 8 272 1.6 9.7 0.00 0.00 0.00 43 1014.9
20260502185234 7 250 0.0 9.7 0.00 0.00 0.00 43 1015.0
20260502184233 7 296 0.0 4.8 0.00 0.00 0.00 44 1015.0
20260502183234 8 275 0.0 4.8 0.00 0.00 0.00 43 1015.0
20260502182233 7 279 0.0 8.0 0.00 0.00 0.00 45 1015.2
20260502181233 7 0 0.0 0.0 0.00 0.00 0.00 48 1015.1
20260502180234 7 271 0.0 12.9 0.00 0.00 0.00 46 1015.3
20260502170233 7 0 0.0 0.0 0.00 0.00 0.00 48 1015.6
20260502164233 7 263 0.0 4.8 0.00 0.00 0.00 47 1015.7
20260502163233 7 294 0.0 3.2 0.00 0.00 0.00 48 1015.8
20260502162233 7 235 0.0 3.2 0.00 0.00 0.00 48 1015.7
20260502161234 7 269 0.0 4.8 0.00 0.00 0.00 46 1015.8
20260502160233 8 73 0.0 8.0 0.00 0.00 0.00 46 1015.7
20260502152235 6 0 0.0 0.0 0.00 0.10 0.00 55 1015.6
20260502151233 5 180 0.0 8.0 0.00 0.10 0.00 57 1015.6
20260502150235 6 180 0.0 3.2 0.00 0.10 0.00 58 1015.6
20260502130233 4 0 0.0 0.0 0.00 0.10 0.00 70 1015.6
20260502123233 3 0 0.0 0.0 0.00 0.10 0.00 77 1015.6
20260502122233 3 178 0.0 6.4 0.00 0.10 0.00 82 1015.6
20260502121234 2 178 0.0 3.2 0.00 0.10 0.00 88 1015.6
20260502120236 1 0 0.0 0.0 0.00 0.10 0.00 92 1015.5
20260502115233 1 136 0.0 1.6 0.00 0.10 0.00 92 1015.4
20260502114233 0 0 0.0 0.0 0.00 0.10 0.00 92 1015.5
20260502113233 0 0 0.0 0.0 0.00 0.10 0.00 92 1015.4
20260502112233 0 0 0.0 0.0 0.00 0.10 0.00 92 1015.3
20260502111233 0 0 0.0 0.0 0.00 0.10 0.00 92 1015.2
20260502110233 0 0 0.0 0.0 0.00 0.10 0.00 92 1015.1
20260502105233 0 0 0.0 0.0 0.00 0.10 0.00 92 1014.9
20260502104233 0 178 0.0 3.2 0.00 0.10 0.00 92 1014.9
20260502103233 0 0 0.0 0.0 0.00 0.10 0.00 92 1014.9
20260502102233 0 0 0.0 0.0 0.00 0.10 0.00 92 1014.9
20260502101233 0 0 0.0 0.0 0.00 0.10 0.00 91 1014.9
20260502100233 1 0 0.0 0.0 0.00 0.10 0.00 91 1014.9
20260502091233 1 0 0.0 0.0 0.00 0.10 0.00 90 1014.7
20260502090234 1 0 0.0 0.0 0.00 0.10 0.00 90 1014.7
20260502071233 2 0 0.0 0.0 0.00 0.13 0.00 85 1014.4
20260502070233 3 0 0.0 0.0 0.00 0.13 0.00 85 1014.4
20260502065233 3 0 0.0 0.0 0.00 0.13 0.00 85 1014.4
20260502064233 3 0 0.0 0.0 0.00 0.13 0.00 85 1014.5
20260502063235 3 0 0.0 0.0 0.00 0.13 0.00 84 1014.5
20260502062233 3 0 0.0 0.0 0.00 0.13 0.00 83 1014.5
20260502061233 3 0 0.0 0.0 0.00 0.13 0.00 82 1014.6
20260502060234 3 0 0.0 0.0 0.00 0.13 0.00 82 1014.6
20260502055233 3 178 0.0 1.6 0.00 0.13 0.00 81 1014.7
20260502054234 4 0 0.0 0.0 0.00 0.13 0.00 81 1014.8
20260502053233 4 0 0.0 0.0 0.00 0.13 0.00 80 1014.7
20260502052233 4 0 0.0 0.0 0.00 0.13 0.00 79 1014.7
20260502051233 4 0 0.0 0.0 0.00 0.13 0.00 80 1014.6
20260502050233 4 0 0.0 0.0 0.00 0.13 0.00 80 1014.6
20260502045233 4 0 0.0 0.0 0.00 0.13 0.00 79 1014.3
20260502044233 4 0 0.0 0.0 0.00 0.15 0.00 79 1014.3
20260502043233 4 0 0.0 0.0 0.00 0.15 0.00 78 1014.3
20260502042233 4 0 0.0 0.0 0.00 0.15 0.00 78 1014.1
20260502041233 4 0 0.0 0.0 0.00 0.15 0.00 78 1014.0
20260502040233 4 0 0.0 0.0 0.00 0.18 0.00 78 1014.0
20260502035233 4 0 0.0 0.0 0.00 0.18 0.18 77 1014.0
20260502034233 5 0 0.0 0.0 0.00 0.18 0.18 76 1013.9
20260502033233 5 0 0.0 0.0 0.00 0.18 0.18 74 1014.0
20260502032233 5 0 0.0 0.0 0.00 0.18 0.18 73 1013.9
20260502031234 5 0 0.0 0.0 0.00 0.18 0.18 74 1014.0
20260502030235 5 0 0.0 0.0 0.00 0.18 0.18 75 1013.9
20260502025234 5 0 0.0 0.0 0.00 0.18 0.18 76 1013.9
20260502024234 5 0 0.0 0.0 0.00 0.18 0.18 77 1014.0
20260502023234 5 0 0.0 0.0 0.00 0.18 0.18 76 1013.9
20260502022234 5 0 0.0 0.0 0.00 0.18 0.18 75 1013.9
20260502021234 5 0 0.0 0.0 0.00 0.18 0.18 75 1013.7
20260502020234 5 0 0.0 0.0 0.00 0.18 0.18 75 1013.6
20260502015235 5 0 0.0 0.0 0.00 0.18 0.18 75 1013.5
20260502014234 5 0 0.0 0.0 0.00 0.18 0.18 73 1013.5
20260502013234 5 0 0.0 0.0 0.00 0.18 0.18 71 1013.4
20260502012234 6 0 0.0 0.0 0.00 0.18 0.18 71 1013.3
20260502011234 6 0 0.0 0.0 0.00 0.18 0.18 70 1013.2
20260502010234 6 0 0.0 0.0 0.00 0.18 0.18 70 1013.2
20260502005234 6 0 0.0 0.0 0.00 0.18 0.18 69 1013.1
20260502004234 6 0 0.0 0.0 0.00 0.18 0.18 68 1013.1
20260502003234 6 0 0.0 0.0 0.00 0.18 0.18 68 1013.0
20260502002234 7 0 0.0 0.0 0.00 0.18 0.18 66 1013.0
20260502001234 7 244 0.0 11.3 0.00 0.18 0.18 66 1012.9
20260502000234 7 0 0.0 0.0 0.00 0.18 0.18 64 1012.7
20260501235234 7 0 0.0 0.0 0.00 0.18 0.18 65 1012.6
20260501234234 7 182 0.0 3.2 0.00 0.18 0.18 64 1012.6
20260501233234 7 182 1.6 6.4 0.00 0.18 0.18 62 1012.6
20260501232235 7 0 0.0 0.0 0.00 0.18 0.18 62 1012.4
20260501231234 7 0 0.0 0.0 0.00 0.18 0.18 64 1012.4
20260501230234 7 0 0.0 0.0 0.00 0.18 0.18 62 1012.4
20260501225234 8 0 0.0 0.0 0.00 0.18 0.18 62 1012.3
20260501224235 8 0 0.0 0.0 0.00 0.18 0.18 62 1012.3
20260501223234 8 0 0.0 0.0 0.00 0.18 0.18 59 1012.3
20260501222235 8 252 0.0 4.8 0.00 0.18 0.18 59 1012.1
20260501221234 8 183 0.0 4.8 0.00 0.18 0.18 57 1012.0
20260501220233 8 236 0.0 8.0 0.00 0.18 0.18 55 1012.1
20260501215234 9 289 0.0 9.7 0.00 0.18 0.18 54 1011.9
20260501214234 9 0 0.0 0.0 0.00 0.18 0.18 53 1011.9
20260501213234 9 0 0.0 0.0 0.00 0.18 0.18 55 1011.8
20260501212234 9 277 1.6 8.0 0.00 0.18 0.18 53 1011.6
20260501211233 9 0 0.0 0.0 0.00 0.18 0.18 55 1011.6